Theta_e
347 348 348 347 347 348 342 347 347 347 348 336 342 343 344 344 344 345 346 346 348 344 342 342 341 340 336 336 331 325 323 323 324 325 326 326 326 325 325 325 329 338 335
349 348 349 348 348 346 348 351 350 349 348 347 339 344 343 343 343 344 347 344 348 347 342 342 342 341 337 337 338 335 329 325 324 324 324 324 324 324 325 325 325 325 325
348 348 349 348 348 348 346 349 347 348 350 348 342 340 343 342 340 343 346 346 348 348 345 343 342 341 342 342 338 338 336 334 332 332 333 334 334 334 335 336 336 335 334
349 349 348 347 347 349 348 349 349 349 349 349 348 343 345 343 341 342 344 346 347 349 350 348 343 342 341 342 343 340 339 336 337 337 339 338 338 338 338 338 339 339 339
350 349 348 348 347 347 347 347 347 350 347 350 348 347 343 343 342 342 344 345 346 346 348 348 347 347 344 342 342 343 342 339 338 340 341 341 340 341 341 342 342 342 341
349 349 349 348 349 349 347 347 346 348 350 349 348 348 349 346 346 344 344 344 344 346 346 345 347 348 344 342 341 341 342 341 343 342 341 342 343 344 344 345 345 345 344
351 349 348 348 352 350 349 349 348 346 346 348 347 346 350 349 345 347 346 345 343 343 345 344 346 347 346 346 347 343 341 341 342 342 342 344 345 345 346 346 346 346 346
352 351 350 347 347 346 341 344 347 346 347 348 346 348 348 346 349 347 348 347 346 345 344 343 344 345 345 346 349 347 346 341 342 341 342 344 343 343 345 345 345 346 346
352 350 349 348 348 346 346 346 347 346 347 348 350 348 348 347 345 344 345 346 346 346 344 343 343 344 345 346 347 348 348 346 341 341 341 342 343 342 345 345 345 345 346
349 350 347 346 347 349 349 348 348 346 346 346 344 351 348 348 348 346 344 345 345 346 345 343 344 344 345 346 347 347 347 345 344 339 337 339 343 343 343 343 342 343 344
344 352 351 350 348 344 345 345 345 347 348 346 346 345 348 348 347 349 348 345 343 347 348 349 344 343 343 345 346 345 334 340 340 341 341 337 340 342 343 343 342 342 344
333 331 334 338 348 347 342 344 344 346 345 346 344 345 346 347 349 349 349 348 346 344 347 347 348 347 345 345 345 345 345 346 342 340 341 341 337 341 342 342 342 341 342
331 332 335 336 338 338 337 339 341 341 344 346 345 347 347 345 347 347 348 348 347 346 345 344 345 346 347 346 345 345 344 342 341 339 340 341 336 337 341 342 342 341 344
335 336 335 338 339 339 339 338 339 341 342 344 343 345 345 346 347 347 347 348 347 346 347 344 346 347 348 346 347 347 345 344 341 338 340 340 336 338 341 342 342 340 340
333 333 336 336 337 338 338 337 338 338 339 341 342 342 343 345 346 345 345 342 348 348 346 346 345 344 345 347 348 348 348 347 346 338 340 341 341 341 342 342 341 340 342
333 335 335 336 336 336 336 335 337 336 336 337 339 341 342 343 343 345 347 347 344 347 349 346 344 344 346 346 346 348 349 349 349 343 339 339 340 341 341 340 340 340 343
332 334 335 334 334 334 334 333 333 334 334 332 332 332 332 335 338 338 343 345 347 349 345 349 348 347 346 347 348 349 349 350 349 348 343 340 340 340 339 339 339 340 344
334 334 334 333 334 333 331 331 328 328 328 328 331 333 333 334 333 334 335 342 344 345 349 346 340 334 345 349 347 346 348 349 348 347 347 346 344 341 339 338 339 341 342
334 334 334 333 331 332 330 327 328 327 326 326 328 333 332 333 335 333 335 335 340 342 345 347 346 346 345 345 350 349 348 347 348 347 346 346 348 346 343 340 341 341 341
334 333 332 333 331 329 326 326 327 325 323 324 328 331 333 333 333 335 333 333 337 343 345 347 347 348 347 347 347 345 347 348 349 351 347 346 345 345 343 341 340 342 341
335 334 333 332 331 325 325 325 324 325 323 324 328 331 331 332 333 335 336 334 336 341 344 345 346 347 346 346 343 344 347 345 345 340 347 346 347 347 345 344 341 340 340
334 332 332 330 326 326 324 323 325 324 323 324 328 332 331 332 333 334 336 336 337 340 343 344 345 343 343 344 342 343 341 342 346 345 349 348 346 349 348 349 347 342 338
332 331 329 327 326 324 322 324 324 323 324 327 330 332 331 332 333 334 337 337 338 337 341 343 343 343 341 340 342 341 341 342 344 342 345 349 347 346 345 348 349 347 347
329 330 326 325 324 322 322 323 323 323 329 334 334 334 332 333 334 336 337 339 337 336 339 338 337 337 340 340 341 338 337 341 339 335 342 350 347 345 347 346 345 347 347
325 326 324 325 324 322 320 321 323 326 334 335 336 335 334 333 335 335 337 339 340 340 341 339 338 337 338 340 341 340 337 340 340 344 344 346 347 345 344 346 347 347 346
326 327 324 325 323 319 319 321 324 328 334 334 335 335 335 335 337 337 336 338 340 342 342 343 342 341 338 336 333 335 335 336 342 338 340 345 345 346 346 345 346 346 346
Wind_Speed
9 9 8 8 8 8 9 7 7 8 8 9 7 9 10 11 11 10 13 8 12 11 9 6 6 6 5 4 4 5 7 7 7 8 8 8 8 7 7 8 9 9 9
9 9 10 10 11 9 10 10 7 8 8 10 7 9 11 12 13 13 12 10 11 13 12 11 8 6 6 6 6 6 7 7 8 8 8 8 8 8 8 8 8 9 10
12 13 12 12 13 14 13 13 14 12 10 11 12 12 12 13 14 15 15 15 14 14 13 12 11 9 8 7 9 9 9 8 7 7 7 7 8 8 7 8 8 9 9
15 15 14 14 13 14 13 14 13 12 13 11 11 11 13 13 15 16 17 16 16 15 17 16 15 14 13 11 9 11 11 10 9 8 9 9 10 9 9 9 10 10 10
16 17 16 16 17 17 18 17 15 15 14 14 13 17 18 15 17 17 19 19 20 21 15 19 17 17 17 16 14 12 12 12 12 11 11 11 11 11 10 10 10 10 11
17 19 18 20 20 19 19 19 21 19 18 18 16 16 17 17 14 18 19 21 21 22 19 21 23 22 22 18 20 18 16 14 14 13 13 11 10 10 9 9 9 11 11
18 21 22 23 21 20 20 24 26 26 25 20 21 20 18 24 20 21 21 21 22 24 25 25 26 24 22 23 22 21 21 19 16 15 14 14 13 13 14 14 14 15 15
20 22 23 26 25 23 22 28 25 27 26 23 23 19 18 19 26 23 22 20 22 23 24 27 29 28 27 22 23 22 21 22 21 19 17 17 16 16 17 19 20 21 20
20 20 22 25 24 23 27 29 28 29 29 25 23 22 12 17 19 19 22 21 21 21 24 26 27 29 28 27 26 26 26 29 27 25 22 21 19 19 18 19 18 20 22
20 20 24 24 24 22 24 27 28 28 29 31 30 26 30 25 21 22 21 19 23 22 23 26 25 27 30 31 29 29 29 28 26 24 26 27 24 23 21 22 21 22 20
24 17 23 20 22 24 24 26 27 29 28 29 30 33 29 27 29 27 28 25 22 22 21 20 21 24 26 27 27 30 26 30 30 25 24 27 29 27 25 24 25 24 23
21 22 21 24 22 23 25 26 29 29 30 30 30 32 33 32 31 29 27 30 30 27 25 23 24 21 21 24 26 27 24 26 26 23 21 26 30 30 28 26 26 26 25
21 20 24 25 22 24 27 28 28 31 32 33 32 31 31 36 42 39 32 34 31 31 29 30 30 27 28 23 25 26 25 28 29 26 23 26 28 30 29 26 25 24 25
17 21 24 20 20 21 23 24 25 26 27 32 36 37 36 34 36 41 45 37 35 38 31 31 27 27 29 28 29 27 28 29 27 26 23 25 27 28 28 27 27 27 28
18 20 21 22 21 21 22 24 23 26 27 31 34 36 40 42 38 38 41 41 38 39 39 30 28 30 30 24 27 28 29 30 29 24 24 25 27 28 28 28 29 27 27
19 19 20 20 21 23 24 26 25 27 29 30 32 34 37 39 42 41 38 35 45 46 32 30 32 24 28 29 27 27 27 28 27 26 27 28 29 29 30 30 30 26 25
21 20 21 22 23 25 26 30 31 32 34 38 39 40 43 45 45 46 45 41 41 41 43 38 28 24 30 22 23 25 27 26 25 29 28 30 31 31 30 29 28 27 26
19 20 23 26 26 28 29 31 38 42 45 46 47 46 48 45 44 46 48 47 43 38 36 46 32 46 40 30 34 38 34 27 27 27 30 30 29 30 31 30 29 26 26
20 23 24 27 27 29 34 38 37 44 49 50 51 51 50 48 47 45 46 47 46 42 37 39 42 42 50 36 32 35 34 41 39 35 31 31 29 30 29 29 28 27 27
22 23 26 25 28 33 37 40 38 46 58 56 50 48 49 50 50 48 46 46 45 40 34 33 36 42 39 36 38 33 33 36 35 27 28 30 30 30 29 31 29 29 28
19 23 26 25 27 35 37 45 50 57 56 49 46 46 46 51 50 48 47 46 44 41 38 35 29 26 26 26 29 29 29 33 34 34 29 29 30 29 28 28 31 32 32
21 22 23 25 31 31 45 46 47 48 48 46 47 44 42 41 44 45 45 45 43 39 39 33 29 28 26 25 26 25 29 33 28 28 30 28 24 32 28 22 19 24 32
20 21 23 27 32 38 48 49 48 43 41 41 41 37 35 35 34 39 42 42 44 40 35 31 32 29 24 22 22 27 30 34 35 32 29 30 26 28 28 26 25 25 25
19 20 24 27 30 41 46 56 52 44 38 37 34 31 30 31 28 30 34 34 39 40 41 37 36 36 37 37 34 32 35 36 37 36 36 23 25 34 25 26 26 25 25
20 21 23 27 32 40 49 55 55 35 28 26 25 24 23 22 24 24 28 31 28 28 29 35 37 36 38 39 31 28 32 30 35 32 30 31 27 23 27 27 24 26 27
16 20 25 24 31 42 49 56 54 29 22 20 21 14 24 21 19 18 22 27 27 22 21 20 23 23 25 28 30 35 35 34 32 32 34 32 33 28 27 24 20 25 25
Wind_Direction
253 259 263 256 255 267 262 240 263 256 259 263 244 255 245 239 251 268 265 268 294 286 277 278 295 279 269 271 271 268 264 260 259 255 256 258 261 266 267 262 262 263 271
254 260 271 274 267 262 272 270 260 246 265 264 239 260 248 243 244 250 262 259 287 292 270 269 276 285 265 265 261 260 259 262 262 261 257 258 260 260 260 266 268 270 273
264 252 256 261 266 271 246 268 265 251 261 255 267 225 244 255 249 248 250 273 269 276 288 266 267 274 278 268 256 254 255 254 253 258 263 266 264 265 270 272 275 275 274
251 248 256 260 261 261 260 261 265 267 267 285 260 256 243 257 254 252 253 249 255 252 270 274 280 274 273 266 261 252 250 253 252 254 259 264 266 269 272 273 276 277 276
258 258 258 260 258 256 257 269 265 259 257 256 262 275 279 250 252 255 255 251 251 248 244 268 271 271 273 263 257 255 252 250 254 255 262 266 266 267 270 272 276 279 279
258 259 262 262 259 260 260 255 257 251 253 256 251 259 266 277 254 256 255 253 251 251 253 248 261 263 270 265 258 256 258 255 253 255 257 258 257 260 266 269 277 285 289
258 255 262 259 258 254 254 251 250 252 252 245 258 261 254 266 262 251 254 255 253 252 250 247 247 249 257 265 264 262 254 253 253 255 254 252 253 260 266 269 273 277 280
275 271 270 277 268 270 241 259 257 259 260 249 249 247 256 264 258 248 247 248 252 251 252 249 247 248 242 246 259 262 260 251 251 254 254 250 257 266 267 270 273 273 272
293 288 282 285 283 270 269 272 269 263 262 262 253 237 234 242 259 256 244 244 246 250 249 248 247 250 255 245 239 251 254 257 255 251 254 252 257 264 267 269 275 277 272
292 289 291 288 286 282 276 279 283 275 268 261 252 248 246 248 260 270 252 245 248 240 244 241 242 249 247 249 248 242 240 250 254 255 252 248 250 257 263 268 275 281 278
310 298 305 298 295 293 286 285 281 278 276 270 261 254 247 252 252 249 256 257 248 245 250 250 239 239 243 245 245 248 245 235 244 251 251 246 244 251 259 267 272 275 274
301 298 294 279 279 290 293 286 280 277 276 275 273 267 261 254 244 243 248 252 254 254 247 236 242 244 236 238 250 244 243 249 247 243 256 247 242 244 254 264 269 273 269
304 298 291 291 290 283 280 276 283 279 274 272 272 268 266 258 254 248 241 245 247 243 236 237 242 242 243 242 242 248 249 243 249 248 259 248 241 240 249 258 269 269 270
300 289 299 301 294 292 292 288 286 281 278 279 272 267 266 260 262 254 246 248 247 257 246 234 234 235 234 242 246 246 250 253 253 245 251 247 241 241 248 255 264 272 269
298 294 290 300 300 298 294 290 291 283 277 274 277 277 267 262 259 262 260 261 259 253 242 238 236 238 241 244 245 240 241 242 248 245 244 244 245 246 250 256 264 268 270
303 298 297 296 294 296 297 294 292 289 283 277 274 271 270 266 260 258 254 257 250 259 260 249 244 241 242 237 236 244 243 246 251 245 242 244 247 250 254 259 262 262 266
302 299 298 299 299 298 297 294 292 292 290 287 282 277 273 265 264 259 259 254 254 252 253 248 245 251 260 245 241 242 237 236 244 254 254 249 250 253 256 257 258 258 258
300 302 302 299 295 295 300 298 294 292 292 291 283 275 270 269 267 262 257 256 259 260 249 250 248 267 257 248 247 246 238 243 249 250 256 260 259 255 254 255 256 256 254
307 299 298 299 304 303 300 302 297 293 293 289 282 273 268 265 262 261 258 254 254 259 261 260 259 257 244 245 262 248 243 250 246 245 244 250 255 258 258 254 253 251 254
304 306 302 301 307 306 308 306 302 295 294 293 282 270 266 261 259 257 257 254 248 247 250 250 252 249 252 252 255 259 253 251 246 250 244 245 252 260 261 255 251 250 251
305 304 304 305 307 313 312 308 306 303 300 290 281 276 269 263 256 252 252 250 244 240 241 243 246 246 243 244 248 251 262 269 255 249 245 240 245 251 258 258 251 248 246
308 314 311 315 313 314 321 326 318 311 298 288 281 279 275 262 250 248 249 247 241 235 238 238 237 243 238 239 248 256 262 265 259 244 249 240 235 238 245 255 269 257 249
317 318 322 320 320 320 332 327 328 312 293 287 286 273 273 261 252 247 243 242 237 234 235 237 234 233 236 237 245 252 259 265 264 253 239 245 236 236 240 245 249 259 263
325 323 328 325 320 331 338 348 335 311 293 295 284 268 270 258 248 240 235 236 231 228 231 238 245 248 243 244 247 259 258 256 265 258 245 256 234 234 235 237 241 248 256
330 335 330 327 327 338 348 348 342 319 305 302 290 262 262 252 246 239 233 227 221 222 232 239 245 252 252 254 250 252 254 252 250 248 249 253 257 239 241 237 233 245 249
332 338 334 335 344 349 352 351 349 342 326 324 321 273 248 247 247 243 230 221 220 218 222 233 250 252 249 250 247 248 251 248 256 253 254 245 240 244 247 247 228 244 242